When you browse on this site, cookies collect data to enhance your experience and personalize the content and advertising you see.
Visit our Privacy Policy to learn more. By continuing to use the site, you agree to this use of cookies and data.
  • In Germany
  • List of Countries
  • For 7 days
  • Water Temperature
  • Satellite Maps
  • Weather Map
  • Weather Widgets
  • user-avatar
    Login

    Hourly Weather Nuoro

    Today, 12 December, Wednesday

    Time Temperature Precipitation Wind Pressure Humidity
    00:00 +7°C° 0 mm 2 mps 717 mmHg 89%
    01:00 +7°C° 0 mm 2 mps 717 mmHg 90%
    02:00 +7°C° 0 mm 2 mps 717 mmHg 91%
    03:00 +7°C° 0 mm 2 mps 717 mmHg 91%
    04:00 +6°C° 0 mm 2 mps 717 mmHg 91%
    05:00 +6°C° 0 mm 2 mps 716 mmHg 92%
    06:00 +6°C° 0 mm 2 mps 716 mmHg 92%
    07:00 +6°C° 0 mm 2 mps 716 mmHg 93%
    08:00 +7°C° 0 mm 2 mps 717 mmHg 87%
    09:00 +8°C° 0 mm 2 mps 717 mmHg 81%
    10:00 +9°C° 0 mm 3 mps 717 mmHg 75%
    11:00 +10°C° 0 mm 3 mps 717 mmHg 70%
    12:00 +12°C° 0 mm 2 mps 717 mmHg 65%
    13:00 +13°C° 0 mm 2 mps 717 mmHg 59%
    14:00 +12°C° 0 mm 2 mps 717 mmHg 62%
    15:00 +12°C° 0 mm 2 mps 716 mmHg 64%
    16:00 +10°C° 0 mm 2 mps 716 mmHg 67%
    17:00 +9°C° 0 mm 2 mps 716 mmHg 74%
    18:00 +7°C° 0 mm 2 mps 716 mmHg 81%
    19:00 +6°C° 0 mm 2 mps 715 mmHg 88%
    20:00 +6°C° 0 mm 2 mps 715 mmHg 87%
    21:00 +6°C° 0 mm 2 mps 715 mmHg 87%
    22:00 +6°C° 0 mm 2 mps 715 mmHg 86%
    23:00 +6°C° 0 mm 2 mps 715 mmHg 86%

    Tomorrow, 13 December, Thursday

    Time Temperature Precipitation Wind Pressure Humidity
    00:00 +6°C° 0 mm 2 mps 715 mmHg 85%
    01:00 +6°C° 0 mm 2 mps 715 mmHg 84%
    02:00 +6°C° 0 mm 2 mps 714 mmHg 86%
    03:00 +5°C° 0 mm 2 mps 714 mmHg 87%
    04:00 +5°C° 0 mm 2 mps 714 mmHg 88%
    05:00 +5°C° 0 mm 2 mps 713 mmHg 88%
    06:00 +5°C° 0 mm 2 mps 713 mmHg 88%
    07:00 +5°C° 0 mm 2 mps 713 mmHg 88%
    08:00 +7°C° 0.1 mm 2 mps 713 mmHg 85%
    09:00 +8°C° 0.1 mm 2 mps 713 mmHg 82%
    10:00 +9°C° 0.1 mm 2 mps 713 mmHg 79%
    11:00 +9°C° 0.2 mm 2 mps 713 mmHg 79%
    12:00 +10°C° 0.2 mm 2 mps 713 mmHg 79%
    13:00 +10°C° 0.2 mm 2 mps 712 mmHg 79%
    14:00 +10°C° 0.5 mm 2 mps 712 mmHg 83%
    15:00 +10°C° 0.5 mm 2 mps 711 mmHg 87%
    16:00 +9°C° 0.5 mm 2 mps 711 mmHg 92%
    17:00 +9°C° 0.4 mm 2 mps 711 mmHg 93%
    18:00 +9°C° 0.4 mm 2 mps 710 mmHg 95%
    19:00 +10°C° 0.4 mm 1 mps 710 mmHg 96%
    20:00 +9°C° 0.2 mm 1 mps 710 mmHg 96%
    21:00 +9°C° 0.2 mm 1 mps 710 mmHg 96%
    22:00 +9°C° 0.2 mm 1 mps 710 mmHg 97%
    23:00 +9°C° 0.5 mm 1 mps 710 mmHg 96%

    Day after tomorrow, 14 December, Friday

    Time Temperature Precipitation Wind Pressure Humidity
    00:00 +8°C° 0.5 mm 2 mps 709 mmHg 96%
    01:00 +9°C° 0.5 mm 2 mps 709 mmHg 96%
    02:00 +9°C° 0.6 mm 2 mps 709 mmHg 96%
    03:00 +9°C° 0.6 mm 2 mps 709 mmHg 96%
    04:00 +10°C° 0.6 mm 1 mps 708 mmHg 97%
    05:00 +8°C° 0.4 mm 2 mps 708 mmHg 96%
    06:00 +8°C° 0.4 mm 2 mps 708 mmHg 96%
    07:00 +8°C° 0.4 mm 2 mps 708 mmHg 96%
    08:00 +8°C° 0.4 mm 2 mps 708 mmHg 95%
    09:00 +9°C° 0.4 mm 3 mps 709 mmHg 94%
    10:00 +9°C° 0.4 mm 3 mps 709 mmHg 92%
    11:00 +9°C° 0.2 mm 3 mps 709 mmHg 91%
    12:00 +10°C° 0.2 mm 4 mps 709 mmHg 89%
    13:00 +10°C° 0.2 mm 4 mps 709 mmHg 87%
    14:00 +8°C° 0.2 mm 4 mps 709 mmHg 88%
    15:00 +8°C° 0.2 mm 5 mps 709 mmHg 89%
    16:00 +8°C° 0.2 mm 5 mps 710 mmHg 90%
    17:00 +7°C° 0.1 mm 5 mps 710 mmHg 90%
    18:00 +7°C° 0.1 mm 5 mps 710 mmHg 90%
    19:00 +7°C° 0.1 mm 5 mps 711 mmHg 91%
    20:00 +7°C° 0 mm 5 mps 711 mmHg 90%
    21:00 +7°C° 0 mm 5 mps 712 mmHg 90%
    22:00 +6°C° 0 mm 5 mps 712 mmHg 90%
    23:00 +6°C° 0 mm 4 mps 713 mmHg 91%

    15 December, Saturday

    Time Temperature Precipitation Wind Pressure Humidity
    00:00 +6°C° 0 mm 4 mps 713 mmHg 91%
    01:00 +5°C° 0 mm 4 mps 713 mmHg 92%
    02:00 +5°C° 0 mm 4 mps 713 mmHg 92%
    03:00 +5°C° 0 mm 4 mps 714 mmHg 91%
    04:00 +5°C° 0 mm 4 mps 714 mmHg 91%
    05:00 +5°C° 0 mm 4 mps 714 mmHg 91%
    06:00 +5°C° 0 mm 4 mps 715 mmHg 91%
    07:00 +5°C° 0 mm 3 mps 715 mmHg 91%
    08:00 +5°C° 0 mm 4 mps 715 mmHg 87%
    09:00 +6°C° 0 mm 4 mps 716 mmHg 82%
    10:00 +7°C° 0 mm 4 mps 716 mmHg 78%
    11:00 +7°C° 0 mm 4 mps 717 mmHg 74%
    12:00 +8°C° 0 mm 4 mps 717 mmHg 69%
    13:00 +10°C° 0 mm 4 mps 717 mmHg 65%
    14:00 +8°C° 0 mm 4 mps 717 mmHg 66%
    15:00 +8°C° 0 mm 4 mps 717 mmHg 67%
    16:00 +7°C° 0 mm 4 mps 717 mmHg 69%
    17:00 +6°C° 0 mm 4 mps 717 mmHg 74%
    18:00 +5°C° 0 mm 3 mps 717 mmHg 79%
    19:00 +4°C° 0 mm 3 mps 718 mmHg 84%
    20:00 +5°C° 0 mm 2 mps 718 mmHg 85%
    21:00 +5°C° 0 mm 2 mps 718 mmHg 86%
    22:00 +4°C° 0 mm 2 mps 718 mmHg 87%
    23:00 +4°C° 0 mm 2 mps 718 mmHg 87%

    16 December, Sunday

    Time Temperature Precipitation Wind Pressure Humidity
    00:00 +4°C° 0 mm 2 mps 718 mmHg 87%
    01:00 +4°C° 0 mm 2 mps 718 mmHg 88%
    02:00 +4°C° 0 mm 2 mps 718 mmHg 87%
    03:00 +4°C° 0 mm 2 mps 718 mmHg 87%
    04:00 +3°C° 0 mm 2 mps 718 mmHg 86%
    05:00 +4°C° 0 mm 2 mps 718 mmHg 85%
    06:00 +4°C° 0 mm 2 mps 718 mmHg 84%
    07:00 +4°C° 0 mm 2 mps 718 mmHg 83%
    08:00 +5°C° 0 mm 2 mps 718 mmHg 78%
    09:00 +8°C° 0 mm 1 mps 719 mmHg 73%
    10:00 +10°C° 0 mm 1 mps 719 mmHg 69%
    11:00 +10°C° 0 mm 2 mps 719 mmHg 69%
    12:00 +12°C° 0 mm 2 mps 719 mmHg 70%
    13:00 +13°C° 0 mm 2 mps 719 mmHg 71%
    14:00 +13°C° 0 mm 2 mps 718 mmHg 74%
    15:00 +12°C° 0 mm 3 mps 718 mmHg 76%
    16:00 +11°C° 0 mm 3 mps 718 mmHg 79%
    17:00 +11°C° 0 mm 3 mps 718 mmHg 84%
    18:00 +10°C° 0 mm 3 mps 717 mmHg 89%
    19:00 +9°C° 0 mm 3 mps 717 mmHg 94%
    20:00 +10°C° 0.1 mm 3 mps 717 mmHg 94%
    21:00 +11°C° 0.1 mm 3 mps 717 mmHg 94%
    22:00 +11°C° 0.1 mm 4 mps 717 mmHg 93%
    23:00 +11°C° 0 mm 4 mps 717 mmHg 94%

    17 December, Monday

    Time Temperature Precipitation Wind Pressure Humidity
    00:00 +11°C° 0 mm 4 mps 717 mmHg 94%
    01:00 +11°C° 0 mm 4 mps 717 mmHg 95%
    02:00 +10°C° 0 mm 3 mps 717 mmHg 95%
    03:00 +10°C° 0 mm 3 mps 717 mmHg 94%
    04:00 +10°C° 0 mm 3 mps 717 mmHg 94%
    05:00 +10°C° 0.1 mm 3 mps 717 mmHg 93%
    06:00 +10°C° 0.1 mm 3 mps 717 mmHg 93%
    07:00 +10°C° 0.1 mm 3 mps 717 mmHg 92%
    08:00 +10°C° 0.1 mm 3 mps 718 mmHg 90%
    09:00 +10°C° 0.1 mm 3 mps 718 mmHg 88%
    10:00 +10°C° 0.1 mm 3 mps 718 mmHg 86%
    11:00 +11°C° 0 mm 3 mps 718 mmHg 82%
    12:00 +11°C° 0 mm 4 mps 718 mmHg 77%
    13:00 +11°C° 0 mm 4 mps 718 mmHg 73%
    14:00 +11°C° 0.1 mm 4 mps 718 mmHg 74%
    15:00 +11°C° 0.1 mm 4 mps 718 mmHg 75%
    16:00 +10°C° 0.1 mm 4 mps 718 mmHg 75%
    17:00 +8°C° 0 mm 4 mps 718 mmHg 80%
    18:00 +7°C° 0 mm 4 mps 718 mmHg 85%
    19:00 +6°C° 0 mm 4 mps 719 mmHg 90%
    20:00 +6°C° 0 mm 4 mps 719 mmHg 88%
    21:00 +6°C° 0 mm 4 mps 719 mmHg 86%
    22:00 +6°C° 0 mm 5 mps 720 mmHg 84%
    23:00 +6°C° 0 mm 5 mps 720 mmHg 84%
    Show more